GCEMA Weather Reports


time (UTC)temp
F
wind
direction
speed
knots
gust
knots
rain 1hr
in
rain 24hr
in
rain mn
in
humidity
%
barometer
mb
20260504013545 67 359 0.0 0.0 0.00 0.00 0.00 1008.7
20260504012941 68 359 0.0 0.0 0.00 0.00 0.00 1008.7
20260504012342 68 359 0.0 0.0 0.00 0.00 0.00 1008.8
20260504011441 67 359 0.0 0.0 0.00 0.00 0.00 1008.8
20260504010842 68 359 0.0 0.0 0.00 0.00 0.00 1008.7
20260504010544 68 359 0.0 0.0 0.00 0.00 0.00 1008.8
20260504010243 68 359 0.0 0.0 0.00 0.00 0.00 1008.8
20260504005642 68 359 0.0 0.0 0.00 0.00 0.00 1008.8
20260504005341 68 359 0.0 0.0 0.00 0.00 0.00 1008.8
20260504005042 69 359 0.0 0.0 0.00 0.00 0.00 1008.8
20260504004742 69 359 0.0 0.0 0.00 0.00 0.00 1008.9
20260504004440 69 359 0.0 0.0 0.00 0.00 0.00 1009.0
20260504003840 68 359 0.0 0.0 0.00 0.00 0.00 1009.0
20260504003541 68 359 0.0 0.0 0.00 0.00 0.00 1009.1
20260504003241 67 359 0.0 0.0 0.00 0.00 0.00 1009.1
20260504002939 69 359 0.0 0.0 0.00 0.00 0.00 1009.2
20260504002640 68 359 0.0 0.0 0.00 0.00 0.00 1009.2
20260504002340 68 359 0.0 0.0 0.00 0.00 0.00 1009.3
20260504002041 69 359 0.0 0.0 0.00 0.00 0.00 1009.3
20260504001741 67 359 0.0 0.0 0.00 0.00 0.00 1009.5
20260504001438 66 359 0.0 0.0 0.00 0.00 0.00 1009.5
20260504001139 67 359 0.0 0.0 0.00 0.00 0.00 1009.5
20260504000540 67 359 0.0 0.0 0.00 0.00 0.00 1009.4
20260504000241 68 359 0.0 0.0 0.00 0.00 0.00 1009.4
20260503235938 68 359 0.0 0.0 0.00 0.00 0.00 1009.4
20260503235339 68 359 0.0 0.0 0.00 0.00 0.00 1009.5
20260503235039 68 359 0.0 0.0 0.00 0.00 0.00 1009.6
20260503234739 67 359 0.0 0.0 0.00 0.00 0.00 1009.6
20260503234437 66 359 0.0 0.0 0.00 0.00 0.00 1009.6
20260503234137 67 359 0.0 0.0 0.00 0.00 0.00 1009.6
20260503233838 68 359 0.0 0.0 0.00 0.00 0.00 1009.6
20260503233538 67 359 0.0 0.0 0.00 0.00 0.00 1009.5
20260503232936 66 359 0.0 0.0 0.00 0.00 0.00 1009.5
20260503232637 67 359 0.0 0.0 0.00 0.00 0.00 1009.5
20260503232337 66 359 0.0 0.0 0.00 0.00 0.00 1009.4
20260503231738 66 359 0.0 0.0 0.00 0.00 0.00 1009.3
20260503231436 65 359 0.0 0.0 0.00 0.00 0.00 1009.4
20260503231136 65 359 0.0 0.0 0.00 0.00 0.00 1009.4
20260503230837 65 359 0.0 0.0 0.00 0.00 0.00 1009.4
20260503230237 65 359 0.0 0.0 0.00 0.00 0.00 1009.4
20260503225637 66 359 0.0 0.0 0.00 0.00 0.00 1009.4
20260503225336 64 359 0.0 0.0 0.00 0.00 0.00 1009.4
20260503225036 64 359 0.0 0.0 0.00 0.00 0.00 1009.3
20260503224436 64 359 0.0 0.0 0.00 0.00 0.00 1009.4
20260503224135 66 359 0.0 0.0 0.00 0.00 0.00 1009.4
20260503223835 65 359 0.0 0.0 0.00 0.00 0.00 1009.5
20260503222934 66 359 0.0 0.0 0.00 0.00 0.00 1009.3
20260503222634 66 359 0.0 0.0 0.00 0.00 0.00 1009.3
20260503222335 66 359 0.0 0.0 0.00 0.00 0.00 1009.4
20260503222036 66 359 0.0 0.0 0.00 0.00 0.00 1009.4
20260503221736 67 359 0.0 0.0 0.00 0.00 0.00 1009.4
20260503221433 66 359 0.0 0.0 0.00 0.00 0.00 1009.4
20260503221134 67 359 0.0 0.0 0.00 0.00 0.00 1009.4
20260503215933 65 359 0.0 0.0 0.00 0.00 0.00 1009.7
20260503215635 65 359 0.0 0.0 0.00 0.00 0.00 1009.7
20260503215333 66 359 0.0 0.0 0.00 0.00 0.00 1009.6
20260503215036 66 359 0.0 0.0 0.00 0.00 0.00 1009.5
20260503214132 66 359 0.0 0.0 0.00 0.00 0.00 1009.7
20260503213835 66 359 0.0 0.0 0.00 0.00 0.00 1009.8
20260503213236 64 359 0.0 0.0 0.00 0.00 0.00 1010.0
20260503212633 63 359 0.0 0.0 0.00 0.00 0.00 1010.1
20260503212332 65 359 0.0 0.0 0.00 0.00 0.00 1010.2
20260503211431 64 359 0.0 0.0 0.00 0.00 0.00 1010.3
20260503211131 64 359 0.0 0.0 0.00 0.00 0.00 1010.3
20260503210834 64 359 0.0 0.0 0.00 0.00 0.00 1010.3
20260503210532 64 359 0.0 0.0 0.00 0.00 0.00 1010.5
20260503205632 67 359 0.0 0.0 0.00 0.00 0.00 1010.9
20260503205332 65 359 0.0 0.0 0.00 0.00 0.00 1010.8
20260503205032 63 359 0.0 0.0 0.00 0.00 0.00 1010.8
20260503204732 64 359 0.0 0.0 0.00 0.00 0.00 1011.1
20260503204130 63 359 0.0 0.0 0.00 0.00 0.00 1011.6
20260503203831 63 359 0.0 0.0 0.00 0.00 0.00 1011.7
20260503203531 65 359 0.0 0.0 0.00 0.00 0.00 1011.8
20260503202631 63 359 0.0 0.0 0.00 0.00 0.00 1012.2
20260503202330 63 359 0.0 0.0 0.00 0.00 0.00 1012.2
20260503201431 62 359 0.0 0.0 0.00 0.00 0.00 1012.5
20260503201129 63 359 0.0 0.0 0.00 0.00 0.00 1012.5
20260503200830 64 359 0.0 0.0 0.00 0.00 0.00 1012.5
20260503195928 63 359 0.0 0.0 0.00 0.00 0.00 1012.3
20260503195630 66 359 0.0 0.0 0.00 0.00 0.00 1012.4
20260503195329 66 359 0.0 0.0 0.00 0.00 0.00 1012.4
20260503194428 64 359 0.0 0.0 0.00 0.00 0.00 1012.6
20260503194128 65 359 0.0 0.0 0.00 0.00 0.00 1012.6
20260503193829 64 359 0.0 0.0 0.00 0.00 0.00 1012.7
20260503193529 64 359 0.0 0.0 0.00 0.00 0.00 1012.7
20260503193229 63 359 0.0 0.0 0.00 0.00 0.00 1012.8
20260503192926 62 359 0.0 0.0 0.00 0.00 0.00 1012.7
20260503192627 64 359 0.0 0.0 0.00 0.00 0.00 1012.9
20260503192327 62 359 0.0 0.0 0.00 0.00 0.00 1013.0
20260503192029 62 359 0.0 0.0 0.00 0.00 0.00 1013.1
20260503191728 62 359 0.0 0.0 0.00 0.00 0.00 1013.1
20260503191426 61 359 0.0 0.0 0.00 0.00 0.00 1013.3
20260503191126 63 359 0.0 0.0 0.00 0.00 0.00 1013.3
20260503190826 64 359 0.0 0.0 0.00 0.00 0.00 1013.1
20260503190527 62 359 0.0 0.0 0.00 0.00 0.00 1013.1
20260503190227 61 359 0.0 0.0 0.00 0.00 0.00 1013.3
20260503185925 62 359 0.0 0.0 0.00 0.00 0.00 1013.4
20260503185625 64 359 0.0 0.0 0.00 0.00 0.00 1013.4
20260503185328 62 359 0.0 0.0 0.00 0.00 0.00 1013.5
20260503185028 62 359 0.0 0.0 0.00 0.00 0.00 1013.5
20260503184729 64 359 0.0 0.0 0.00 0.00 0.00 1013.5
20260503184423 64 359 0.0 0.0 0.00 0.00 0.00 1013.6
20260503184124 62 359 0.0 0.0 0.00 0.00 0.00 1013.7
20260503183824 60 359 0.0 0.0 0.00 0.00 0.00 1013.9
20260503182923 61 359 0.0 0.0 0.00 0.00 0.00 1013.9
20260503182623 63 359 0.0 0.0 0.00 0.00 0.00 1014.0
20260503182324 61 359 0.0 0.0 0.00 0.00 0.00 1014.1
20260503182025 63 359 0.0 0.0 0.00 0.00 0.00 1014.2
20260503181422 62 359 0.0 0.0 0.00 0.00 0.00 1014.3
20260503181123 62 359 0.0 0.0 0.00 0.00 0.00 1014.4
20260503180823 63 359 0.0 0.0 0.00 0.00 0.00 1014.5
20260503180524 62 359 0.0 0.0 0.00 0.00 0.00 1014.5
20260503175922 60 359 0.0 0.0 0.00 0.00 0.00 1014.6
20260503175622 62 359 0.0 0.0 0.00 0.00 0.00 1014.8
20260503175325 62 359 0.0 0.0 0.00 0.00 0.00 1014.8
20260503175023 61 359 0.0 0.0 0.00 0.00 0.00 1014.9
20260503174421 62 359 0.0 0.0 0.00 0.00 0.00 1015.1
20260503174122 60 359 0.0 0.0 0.00 0.00 0.00 1015.1
20260503173523 60 359 0.0 0.0 0.00 0.00 0.00 1015.3
20260503172922 60 359 0.0 0.0 0.00 0.00 0.00 1015.4
20260503172322 60 359 0.0 0.0 0.00 0.00 0.00 1015.5
20260503172022 60 359 0.0 0.0 0.00 0.00 0.00 1015.5
20260503171723 59 359 0.0 0.0 0.00 0.00 0.00 1015.5
20260503171420 61 359 0.0 0.0 0.00 0.00 0.00 1015.5
20260503171121 60 359 0.0 0.0 0.00 0.00 0.00 1015.5
20260503170821 63 359 0.0 0.0 0.00 0.00 0.00 1015.4
20260503170522 61 359 0.0 0.0 0.00 0.00 0.00 1015.6
20260503170222 60 359 0.0 0.0 0.00 0.00 0.00 1015.7
20260503150813 57 359 0.0 0.0 0.00 0.00 0.00 1017.0
20260503150514 59 359 0.0 0.0 0.00 0.00 0.00 1016.9
20260503140210 57 359 0.0 0.0 0.00 0.00 0.00 1017.4
20260503131403 51 359 0.0 0.0 0.00 0.00 0.00 1017.3
20260503131104 53 359 0.0 0.0 0.00 0.00 0.00 1017.4
20260503130507 53 359 0.0 0.0 0.00 0.00 0.00 1017.4
20260503130205 54 359 0.0 0.0 0.00 0.00 0.00 1017.4
20260503110802 49 359 0.0 0.0 0.00 0.00 0.00 1016.7
20260503110502 49 359 0.0 0.0 0.00 0.00 0.00 1016.8
20260503110202 48 359 0.0 0.0 0.00 0.00 0.00 1016.8
20260503100202 48 359 0.0 0.0 0.00 0.00 0.00 1016.5
20260503090459 49 359 0.0 0.0 0.00 0.00 0.00 1016.5
20260503090200 49 359 0.0 0.0 0.00 0.00 0.00 1016.5
20260503081355 49 359 0.0 0.0 0.00 0.00 0.00 1016.4
20260503081055 49 359 0.0 0.0 0.00 0.00 0.00 1016.4
20260503080756 49 359 0.0 0.0 0.00 0.00 0.00 1016.4
20260503080456 48 359 0.0 0.0 0.00 0.00 0.00 1016.4
20260503080157 48 359 0.0 0.0 0.00 0.00 0.00 1016.4
20260503072855 47 359 0.0 0.0 0.00 0.00 0.00 1016.4
20260503072555 47 359 0.0 0.0 0.00 0.00 0.00 1016.4
20260503072256 47 359 0.0 0.0 0.00 0.00 0.00 1016.4
20260503071657 46 359 0.0 0.0 0.00 0.00 0.00 1016.4
20260503071355 46 359 0.0 0.0 0.00 0.00 0.00 1016.4
20260503071055 46 359 0.0 0.0 0.00 0.00 0.00 1016.4
20260503070756 46 359 0.0 0.0 0.00 0.00 0.00 1016.4
20260503070456 46 359 0.0 0.0 0.00 0.00 0.00 1016.4
20260503070157 46 359 0.0 0.0 0.00 0.00 0.00 1016.4
20260503060156 48 359 0.0 0.0 0.00 0.00 0.00 1016.8
20260503054955 48 359 0.0 0.0 0.00 0.00 0.00 1016.7
20260503054655 48 359 0.0 0.0 0.00 0.00 0.00 1016.7
20260503054353 48 359 0.0 0.0 0.00 0.00 0.00 1016.8
20260503054053 48 359 0.0 0.0 0.00 0.00 0.00 1016.8
20260503053454 48 359 0.0 0.0 0.00 0.00 0.00 1016.8
20260503053155 48 359 0.0 0.0 0.00 0.00 0.00 1016.8
20260503052852 48 359 0.0 0.0 0.00 0.00 0.00 1016.9
20260503052553 48 359 0.0 0.0 0.00 0.00 0.00 1016.9
20260503052253 48 359 0.0 0.0 0.00 0.00 0.00 1016.8
20260503051954 48 359 0.0 0.0 0.00 0.00 0.00 1016.8
20260503051654 48 359 0.0 0.0 0.00 0.00 0.00 1016.8
20260503051352 48 359 0.0 0.0 0.00 0.00 0.00 1016.8
20260503051052 48 359 0.0 0.0 0.00 0.00 0.00 1016.8
20260503050753 48 359 0.0 0.0 0.00 0.00 0.00 1016.8
20260503050454 48 359 0.0 0.0 0.00 0.00 0.00 1016.7
20260503050154 49 359 0.0 0.0 0.00 0.00 0.00 1016.8
20260503045851 49 359 0.0 0.0 0.00 0.00 0.00 1016.7
20260503045552 49 359 0.0 0.0 0.00 0.00 0.00 1016.7
20260503045252 49 359 0.0 0.0 0.00 0.00 0.00 1016.7
20260503044952 49 359 0.0 0.0 0.00 0.00 0.00 1016.8
20260503044653 49 359 0.0 0.0 0.00 0.00 0.00 1016.8
20260503044350 49 359 0.0 0.0 0.00 0.00 0.00 1016.8
20260503044051 50 359 0.0 0.0 0.00 0.00 0.00 1016.8
20260503043752 50 359 0.0 0.0 0.00 0.00 0.00 1016.8
20260503043452 50 359 0.0 0.0 0.00 0.00 0.00 1016.7
20260503043152 50 359 0.0 0.0 0.00 0.00 0.00 1016.7
20260503042850 50 359 0.0 0.0 0.00 0.00 0.00 1016.8
20260503042550 50 359 0.0 0.0 0.00 0.00 0.00 1016.7
20260503042251 50 359 0.0 0.0 0.00 0.00 0.00 1016.8
20260503041951 50 359 0.0 0.0 0.00 0.00 0.00 1016.7
20260503041651 50 359 0.0 0.0 0.00 0.00 0.00 1016.7
20260503041349 50 359 0.0 0.0 0.00 0.00 0.00 1016.7
20260503041049 50 359 0.0 0.0 0.00 0.00 0.00 1016.7
20260503040750 50 359 0.0 0.0 0.00 0.00 0.00 1016.7
20260503040450 50 359 0.0 0.0 0.00 0.00 0.00 1016.7
20260503040151 51 359 0.0 0.0 0.00 0.00 0.00 1016.7
20260503035848 51 359 0.0 0.0 0.00 0.00 0.00 1016.7
20260503035549 51 359 0.0 0.0 0.00 0.00 0.00 1016.7
20260503035249 51 359 0.0 0.0 0.00 0.00 0.00 1016.7
20260503034950 51 359 0.0 0.0 0.00 0.00 0.00 1016.7
20260503034650 51 359 0.0 0.0 0.00 0.00 0.00 1016.7
20260503034348 51 359 0.0 0.0 0.00 0.00 0.00 1016.7
20260503034048 52 359 0.0 0.0 0.00 0.00 0.00 1016.6
20260503033749 52 359 0.0 0.0 0.00 0.00 0.00 1016.6
20260503033449 52 359 0.0 0.0 0.00 0.00 0.00 1016.6
20260503033149 52 359 0.0 0.0 0.00 0.00 0.00 1016.6
20260503032849 53 359 0.0 0.0 0.00 0.00 0.00 1016.6
20260503032547 53 359 0.0 0.0 0.00 0.00 0.00 1016.6
20260503032249 53 359 0.0 0.0 0.00 0.00 0.00 1016.6
20260503031948 53 359 0.0 0.0 0.00 0.00 0.00 1016.6
20260503031648 53 359 0.0 0.0 0.00 0.00 0.00 1016.6
20260503031346 53 359 0.0 0.0 0.00 0.00 0.00 1016.6
20260503031046 53 359 0.0 0.0 0.00 0.00 0.00 1016.7
20260503030747 53 359 0.0 0.0 0.00 0.00 0.00 1016.7
20260503030447 53 359 0.0 0.0 0.00 0.00 0.00 1016.7
20260503030148 53 359 0.0 0.0 0.00 0.00 0.00 1016.7
20260503025845 53 359 0.0 0.0 0.00 0.00 0.00 1016.7
20260503025546 53 359 0.0 0.0 0.00 0.00 0.00 1016.8
20260503025246 54 359 0.0 0.0 0.00 0.00 0.00 1016.8
20260503024947 54 359 0.0 0.0 0.00 0.00 0.00 1016.7
20260503024647 54 359 0.0 0.0 0.00 0.00 0.00 1016.7
20260503024345 54 359 0.0 0.0 0.00 0.00 0.00 1016.6
20260503024045 54 359 0.0 0.0 0.00 0.00 0.00 1016.6
20260503023746 55 359 0.0 0.0 0.00 0.00 0.00 1016.6
20260503023446 55 359 0.0 0.0 0.00 0.00 0.00 1016.5
20260503023146 55 359 0.0 0.0 0.00 0.00 0.00 1016.5
20260503022844 55 359 0.0 0.0 0.00 0.00 0.00 1016.5
20260503022544 55 359 0.0 0.0 0.00 0.00 0.00 1016.5
20260503022245 55 359 0.0 0.0 0.00 0.00 0.00 1016.5
20260503021945 56 359 0.0 0.0 0.00 0.00 0.00 1016.5
20260503021648 56 359 0.0 0.0 0.00 0.00 0.00 1016.4
20260503021343 56 359 0.0 0.0 0.00 0.00 0.00 1016.4
20260503021044 57 359 0.0 0.0 0.00 0.00 0.00 1016.4
20260503020744 58 359 0.0 0.0 0.00 0.00 0.00 1016.3
20260503020445 58 359 0.0 0.0 0.00 0.00 0.00 1016.3
20260503015843 59 359 0.0 0.0 0.00 0.00 0.00 1016.3
20260503015543 59 359 0.0 0.0 0.00 0.00 0.00 1016.3
20260503015243 59 359 0.0 0.0 0.00 0.00 0.00 1016.2
20260503014944 59 359 0.0 0.0 0.00 0.00 0.00 1016.2
20260503014342 59 359 0.0 0.0 0.00 0.00 0.00 1016.1